STARLINK-32081, 60348

Orbit data source: Space-Track

STARLINK-32081, 60348 is a payload satellite owned by SpaceX/Seattle (US) in LEO that was launched on Fri, 02 Aug 2024 UTC via an FALCON 9 launch vehicle from the Air Force Eastern Test Range (AFETR). Payloads include a variety of satellites, spacecraft, and rockets equipped with specific instruments for various scientific and technological missions. These include communications satellites like Starlink; space stations such as the ISS; scientific satellites like the Hubble; Earth observation satellites from companies like Planet Labs, Umbra, and HawkEye 360; GPS; miniature CubeSats for education and research; and military/defense satellites.

Loading next visibility...
STARLINK-32081 details
Identifier
60348, 2024-136V
Orbit
LEO
Last TLE update12 hours ago
Origin
Flag of USSpaceX/Seattle (US)
ManufacturerSpaceX/Seattle
MissionOperational spacecraft
Bus & MotorSTARLINK V2M, Unknown motor
Mass730 kg wet, ~700 kg dry
Launch date (UTC)
2024-08-02 (5 months ago)
Launch vehicle
FALCON 9
Launch site
Air Force Eastern Test Range (AFETR)
Object type
Payload
Rocket body
Debris
Shape & HBRUnknown
Radar Cross SectionLarge (>1 m²)

Expand to show TLE details & history

TLE from 12 hours ago
0 STARLINK-32081
1 60348U 24136V   25014.86495971 -.00000169  00000-0  64055-5 0  9990
2 60348  53.1602 220.8454 0001046  96.3185 263.7934 15.30189110 26751
Epoch: 2025-01-14T20:45Z
Definitive object data (Epoch: 2025-01-14T20:45:32.518Z)
Latitude-0.00012°
Longitude154.89429°
Altitude476.225 km
Speed7.629 km/s
True Right ascension14h 43m 22s
True Declination0° 00' 00"
Sunlit
Object was in daylight at TLE epoch
Visualization TLE readout
Latitude-22.99781°
Longitude-8.9716°
Altitude482.07 km
Speed7.624 km/s
Apparent Right ascension01h 05m 51s
Apparent Declination-42° 00' 42"
Sunlit
Object is in daylight
Visualization observer readout
Local Sidereal Time09:18:13
Azimuth247.878° W
Elevation-47.78°
Doppler factor1
Orbital elements
Apogee altitude476.221 km
Perigee altitude474.787 km
Semi-major axis6,853.641 km
Eccentricity0.0001046
Inclination53.1602°
RAAN220.8454°
Arg. of periapsis96.3185°
True anomaly263.78148°
Mean anomaly263.7934°
Eccentric anomaly263.78744°
Mean motion3.82526 °/min
BSTAR0.0000064055
Orbital period94.11 mins
Loading maneuver chart data...
Loading historical data...
Loading historical data...
Loading historical data...
Loading historical data...
Loading historical data...
Loading historical data...
Loading historical data...

STARLINK-32081 Visibility forecast

Observer location: undefined°, undefined

Span
Click to sort rows by Start time (UTC) header in descending order
Start Az.
Max El. time (UTC)
Max El. Az.
Max El.
End time (UTC)
End Az.
6 mins2025-01-15 15:43:28.715Z203.002° SW2025-01-15 15:46:28.715Z146.685° SSE32.183°2025-01-15 15:49:28.715Z68.279° E
4 mins2025-01-15 17:23:28.715Z295.846° NW2025-01-15 17:24:28.715Z322.511° NNW24.992°2025-01-15 17:27:28.715Z27.783° NE
5 mins2025-01-15 22:19:28.715Z333.761° NNW2025-01-15 22:21:28.715Z24.674° NE30.965°2025-01-15 22:24:28.715Z97.767° ESE
5 mins2025-01-15 23:57:28.715Z275.073° WNW2025-01-15 23:59:28.715Z228.59° WSW24.081°2025-01-16 00:02:28.715Z171.491° S
|